User: anonymous   Login
Location: Unspecified
(0.0000°N, 0.0000°E)
Time: 13:49:09
(UTC+00:00)
Language:

SR - Orbit

View from above orbital plane
View from above orbital plane
View from above satellite
View from above satellite

Ground track
Ground track

The orbit data is extracted from the following two-line orbital elements,

1 00046U 60007B   17053.52744118  .00000148  00000-0  52035-4 0  9993
2 00046  66.6895  77.8413 0216784 312.3841  45.9092 14.48996932963644
Epoch (UTC): 22 February 2017 12:39:30
Eccentricity: 0.0216784
inclination: 66.6895°
perigee height: 575 km
apogee height: 883 km
right ascension of ascending node: 77.8413°
argument of perigee: 312.3841°
revolutions per day: 14.48996932
mean anomaly at epoch: 45.9092°
orbit number at epoch: 96364

The dashed part of the orbit path shows where the satellite is in the earth's shadow,  

DLR